Wind_Speed
25 25 25 24 22 22 20 22 22 23 24 22 21 20 21 19 17 17 21 24 24 26 27 27 30 28 31 32 35 36 37 37 39 41 45 48 49 49 50 51 52 53 56 56 59 63 67
29 28 26 26 26 22 23 25 25 26 27 27 27 27 26 23 24 24 26 24 29 33 33 36 35 35 34 36 37 39 40 41 43 43 47 48 51 50 52 52 52 52 54 52 56 60 65
34 31 30 28 27 28 28 28 27 29 31 33 32 32 32 32 33 32 33 34 38 34 37 37 39 39 40 40 42 41 41 43 44 45 46 48 50 51 51 50 50 50 53 55 55 59 62
36 35 34 33 32 34 35 37 35 35 33 35 36 37 37 39 38 38 38 38 41 42 42 40 40 43 45 46 46 46 44 46 47 46 48 48 48 50 50 52 51 50 48 53 51 55 60
42 40 42 42 39 38 37 39 39 40 40 39 40 39 44 43 43 45 44 42 45 47 48 46 44 44 47 47 48 51 49 50 49 46 47 49 49 49 47 50 52 52 49 49 52 51 56
43 42 41 42 37 38 40 39 38 39 40 41 41 41 44 47 46 47 47 49 50 51 51 50 47 48 49 51 51 51 51 53 48 48 47 48 47 47 47 49 52 50 51 47 45 49 51
45 47 47 48 46 45 47 45 47 50 50 52 50 52 53 51 52 53 55 54 52 54 54 52 50 50 52 53 52 54 55 53 50 48 46 47 47 49 49 51 51 53 52 49 44 46 48
53 55 56 57 57 57 55 54 52 56 53 52 53 53 52 54 54 55 57 58 58 58 58 57 56 57 58 58 57 57 55 54 51 49 49 48 49 51 51 53 52 53 52 51 46 41 46
55 57 56 55 55 54 54 57 57 55 56 58 57 56 63 59 58 60 59 58 59 61 61 61 60 60 61 60 56 56 55 54 54 52 50 50 50 49 52 54 55 55 51 48 44 44 40
54 57 59 61 62 63 61 60 60 59 59 62 61 61 61 63 63 61 62 63 63 64 62 62 62 62 60 57 57 56 54 53 53 53 52 51 51 50 51 54 55 54 52 47 44 41 37
52 55 57 58 58 60 62 61 61 62 65 65 65 62 62 64 64 66 64 64 66 65 65 64 63 61 60 60 60 58 56 56 55 55 54 52 52 52 54 54 53 52 50 46 42 42 38
41 47 53 53 56 59 60 60 60 61 62 64 64 65 64 65 65 66 66 66 67 67 66 67 65 63 62 62 61 59 59 58 56 58 56 54 54 55 57 53 49 49 47 47 43 41 38
41 46 50 48 48 50 53 58 60 62 63 64 64 66 66 67 68 68 69 69 69 70 72 69 69 67 66 66 65 63 61 62 62 60 60 59 58 58 56 52 48 47 44 43 45 43 37
41 41 40 40 41 44 52 56 56 56 56 60 63 66 67 69 70 71 71 70 70 69 73 71 69 68 68 68 66 65 65 67 67 61 57 58 60 57 54 50 49 46 45 39 36 36 34
47 44 43 42 46 46 44 44 47 50 56 60 61 59 61 66 64 66 65 66 66 70 71 72 71 70 70 70 70 70 69 66 64 59 57 54 57 54 52 49 48 39 37 35 33 37 35
46 50 49 50 50 51 54 55 59 60 57 55 58 61 61 63 64 64 64 62 65 69 73 74 72 72 70 70 73 68 64 64 59 57 57 56 52 53 49 48 38 37 34 34 30 26 30
60 61 57 56 60 57 58 64 68 67 66 66 63 62 63 66 66 65 63 66 70 71 71 70 69 68 70 69 67 65 61 61 60 59 57 53 49 48 49 40 37 40 36 33 30 29 25
65 63 62 63 67 64 68 72 71 75 74 69 67 68 63 67 68 69 68 69 70 71 75 75 73 68 66 66 60 59 57 58 56 55 51 51 48 47 51 44 43 42 37 35 33 34 29
72 65 69 67 72 72 75 78 77 75 74 74 70 69 68 70 73 75 75 72 74 74 74 74 75 72 69 66 65 60 59 60 60 57 54 52 48 48 47 48 45 44 41 36 37 38 38
72 69 70 76 79 78 79 83 85 80 76 78 79 77 74 77 79 81 81 76 74 76 76 79 75 76 76 72 70 68 64 62 62 60 57 55 50 50 44 43 42 43 44 42 41 40 41
71 72 79 82 86 85 93 85 86 81 82 84 84 82 84 81 81 81 80 76 74 74 74 77 80 78 76 76 76 76 71 69 66 65 65 61 53 52 49 49 48 47 47 50 48 46 39
83 79 87 89 93 104 92 80 77 89 87 85 89 91 90 84 85 84 81 76 74 72 73 74 78 77 79 79 81 82 82 80 74 73 72 66 60 57 55 58 55 47 50 55 51 46 44
92 97 99 102 104 97 86 83 82 85 87 89 91 89 89 88 86 83 81 76 73 72 72 72 76 79 82 83 84 82 82 81 80 76 76 71 69 67 62 64 61 42 57 56 53 49 44
98 102 105 103 96 94 88 86 88 90 91 91 91 91 89 85 86 82 78 76 74 73 71 74 76 77 80 83 83 83 82 81 81 79 80 79 78 76 70 69 54 57 53 55 54 50 47
107 108 104 95 92 90 91 92 94 96 96 96 94 93 89 85 83 79 76 75 73 73 74 73 77 77 77 78 80 80 80 79 79 80 80 79 79 80 72 72 63 60 56 55 52 48 55
112 109 105 95 92 89 88 91 93 92 92 93 93 90 87 81 78 75 73 75 73 75 76 77 79 79 78 79 81 80 77 77 77 78 79 82 83 83 79 76 64 61 57 56 57 40 66
101 98 92 85 83 83 85 88 88 88 88 86 85 84 81 77 75 73 72 74 76 78 77 79 78 79 81 81 79 78 76 75 72 72 77 80 81 79 74 67 50 53 57 66 58 60 62
91 86 82 78 77 76 78 80 80 80 81 81 80 81 80 78 74 73 74 77 77 79 79 81 80 82 84 86 84 81 75 77 73 73 74 78 81 77 80 76 52 63 67 67 63 61 59
80 80 78 75 75 76 77 77 77 78 79 80 77 80 80 77 74 74 76 80 80 81 81 80 82 88 90 90 89 83 79 71 75 74 79 81 81 80 77 66 64 64 72 76 72 67 67
Wind_Direction
273 280 281 284 278 273 280 291 294 301 298 305 299 310 318 312 309 316 323 324 326 325 326 323 318 315 318 320 317 309 303 298 297 298 305 310 308 307 310 312 315 320 321 325 323 323 325
273 278 279 282 281 278 279 287 294 284 289 296 294 288 294 302 302 302 308 317 321 320 322 320 315 316 316 314 317 310 307 301 301 301 305 310 310 310 312 314 317 318 322 329 328 330 331
271 277 275 271 278 282 280 285 288 290 284 283 288 284 285 289 295 297 299 303 311 310 314 313 312 314 315 314 315 318 308 304 304 303 306 310 313 316 319 319 322 322 327 332 338 335 334
269 273 275 275 279 278 280 285 287 288 284 284 282 282 283 282 286 291 292 296 304 309 312 311 307 307 310 311 313 316 316 312 309 310 313 311 313 320 323 322 325 326 331 335 339 340 341
274 274 274 276 278 281 281 286 284 285 284 281 281 282 285 282 280 285 288 291 301 305 305 304 306 301 304 307 310 312 314 315 313 311 312 314 315 320 321 329 330 333 335 339 342 342 345
273 276 277 276 275 276 282 282 281 283 285 285 279 281 284 283 283 282 285 292 295 297 299 300 300 300 302 305 307 308 311 313 312 313 312 316 319 320 322 324 330 331 333 336 342 345 346
269 269 276 275 274 278 279 282 282 285 287 288 283 286 284 283 285 286 289 288 291 295 296 297 294 296 298 301 304 307 308 312 313 312 312 316 318 321 322 328 331 332 332 333 340 347 347
272 275 278 280 281 281 282 281 278 285 281 282 286 286 285 280 280 283 285 287 286 290 292 294 294 292 294 300 302 305 307 311 314 311 314 316 322 323 324 327 328 329 332 333 338 349 349
276 279 278 278 276 277 278 279 280 282 278 284 286 282 288 287 281 282 284 282 282 286 292 291 292 293 295 297 300 304 306 310 312 314 313 316 317 321 323 323 326 326 328 332 339 346 351
278 279 277 278 279 280 280 281 282 278 278 281 284 283 285 282 284 284 282 283 285 288 292 292 291 292 294 297 300 303 305 307 309 311 312 314 315 316 320 320 321 325 326 329 336 344 349
273 276 277 279 281 282 282 283 284 281 280 281 281 283 283 282 283 283 284 284 286 289 290 291 292 291 292 295 298 301 302 304 305 307 307 309 309 312 316 318 320 320 321 325 330 338 346
278 278 275 274 277 279 278 279 281 282 282 283 283 281 282 283 281 281 282 285 285 287 287 289 290 290 292 293 295 297 300 302 304 304 304 305 306 308 314 315 317 318 319 323 325 333 340
290 289 288 287 286 284 281 280 279 280 280 281 281 280 281 282 283 282 282 284 285 286 285 286 285 287 288 289 292 294 295 297 299 300 301 303 304 308 310 312 313 315 318 320 323 324 329
299 294 294 300 295 298 294 289 288 289 285 282 281 279 281 281 282 282 282 282 282 280 281 283 283 285 286 287 289 290 291 294 297 298 299 301 302 305 307 310 311 312 313 311 313 314 320
294 298 302 303 306 304 305 303 305 311 297 291 290 286 284 283 282 280 280 281 281 279 278 280 281 282 284 285 287 287 291 293 295 296 297 299 302 306 308 312 312 311 315 313 317 320 317
301 299 298 304 307 304 305 309 307 307 308 298 291 287 284 284 284 283 282 280 279 281 281 280 280 281 280 281 284 285 288 290 292 294 297 300 302 307 307 312 311 314 319 319 318 322 316
296 298 297 297 304 303 304 307 311 304 303 303 297 291 285 283 280 280 281 280 279 279 278 278 281 282 281 280 283 284 288 288 291 295 297 299 300 302 305 305 310 313 316 320 316 318 319
293 296 295 298 298 298 300 301 301 303 297 297 294 289 285 284 283 284 283 280 277 277 278 280 282 281 281 283 282 284 284 285 286 290 292 293 296 300 302 302 306 308 309 313 315 316 319
293 289 292 297 297 296 294 296 298 299 291 293 296 295 286 284 283 283 281 282 279 274 271 273 275 276 277 278 277 277 280 282 284 286 287 287 290 293 294 298 302 304 303 304 312 313 316
299 294 290 293 294 296 292 294 293 296 291 290 292 295 288 285 286 284 284 283 280 275 271 268 269 270 271 272 275 276 274 275 279 282 282 284 286 288 292 291 294 298 299 297 298 301 303
291 288 286 289 294 297 298 292 289 289 290 287 290 290 290 288 287 286 285 283 279 275 272 267 264 267 269 267 269 270 271 272 273 275 278 282 285 284 284 286 287 293 294 290 291 293 290
285 285 284 290 292 294 294 289 279 281 284 283 284 285 288 287 286 286 285 282 279 277 272 270 264 264 263 267 268 267 270 271 270 272 275 278 280 280 277 281 283 292 295 286 291 291 287
288 290 289 292 295 295 290 286 282 281 282 282 283 285 285 286 287 286 283 281 280 277 272 268 265 262 263 264 265 267 267 268 270 270 273 276 277 274 274 275 282 298 283 286 287 287 284
290 291 295 293 292 291 288 283 282 282 282 283 282 284 284 285 286 284 282 280 276 274 270 267 265 265 264 264 265 265 266 267 268 270 271 273 277 277 277 277 285 286 284 278 283 282 281
293 294 296 293 291 289 286 282 280 280 282 281 282 283 284 284 283 281 278 275 273 273 271 268 267 266 265 264 264 264 265 266 266 267 270 272 273 275 278 277 279 283 272 272 274 281 282
294 294 296 291 288 286 283 281 280 280 279 280 281 282 282 282 279 277 274 273 271 269 271 269 269 269 267 264 263 263 263 265 266 267 268 271 273 274 275 275 275 274 266 268 269 268 268
295 293 291 287 286 284 282 280 280 280 279 278 278 279 279 278 276 275 272 270 270 270 268 267 267 268 267 266 266 267 267 267 266 266 266 268 270 273 275 275 271 269 270 266 269 265 270
295 293 290 288 286 283 281 280 278 278 277 277 277 277 276 276 275 274 272 271 268 265 265 266 266 264 264 267 267 263 266 268 270 267 265 266 268 271 270 271 277 272 275 276 271 267 265
293 292 289 287 287 285 283 282 281 279 279 277 276 275 274 275 274 271 272 273 271 269 266 266 265 263 262 263 264 269 275 276 269 264 265 266 268 267 271 276 276 274 272 273 272 271 273
Height
10760 10760 10759 10759 10758 10757 10757 10756 10755 10754 10753 10751 10750 10749 10748 10747 10745 10743 10741 10739 10736 10734 10732 10728 10725 10722 10718 10715 10711 10706 10702 10697 10692 10687 10681 10674 10668 10661 10653 10646 10636 10626 10615 10602 10587 10568 10551
10755 10756 10755 10755 10754 10753 10753 10751 10750 10750 10749 10747 10746 10744 10743 10742 10740 10738 10736 10735 10733 10730 10727 10724 10720 10717 10713 10709 10705 10699 10694 10689 10684 10678 10673 10665 10658 10652 10644 10635 10627 10617 10606 10597 10577 10559 10540
10750 10750 10750 10749 10749 10749 10748 10746 10745 10744 10743 10741 10740 10738 10737 10735 10734 10732 10730 10728 10726 10725 10722 10719 10714 10710 10706 10702 10697 10692 10687 10681 10675 10670 10664 10657 10649 10643 10635 10627 10619 10608 10595 10583 10569 10552 10535
10744 10744 10744 10744 10743 10743 10742 10740 10739 10737 10736 10735 10733 10732 10730 10729 10727 10725 10723 10721 10719 10717 10714 10711 10707 10703 10699 10695 10690 10685 10680 10674 10669 10663 10655 10648 10642 10635 10627 10617 10610 10602 10592 10578 10566 10550 10532
10737 10737 10737 10737 10737 10736 10735 10733 10731 10730 10728 10727 10725 10724 10723 10721 10719 10717 10714 10712 10710 10708 10706 10703 10699 10695 10691 10687 10682 10677 10672 10666 10660 10655 10648 10641 10634 10628 10621 10612 10600 10591 10583 10575 10561 10548 10532
10729 10729 10729 10729 10728 10728 10727 10725 10724 10722 10720 10719 10717 10715 10714 10713 10711 10708 10705 10704 10701 10699 10696 10693 10689 10686 10682 10678 10674 10669 10663 10658 10652 10646 10639 10632 10626 10620 10612 10606 10597 10589 10580 10571 10561 10547 10530
10720 10719 10719 10719 10719 10718 10718 10716 10715 10713 10711 10710 10708 10706 10704 10702 10700 10698 10697 10694 10691 10688 10685 10682 10679 10676 10671 10668 10664 10659 10654 10649 10643 10638 10631 10625 10619 10611 10605 10597 10590 10581 10573 10564 10556 10544 10529
10710 10709 10709 10709 10708 10708 10707 10706 10704 10702 10701 10699 10697 10694 10692 10690 10689 10687 10686 10683 10681 10677 10673 10669 10666 10663 10660 10658 10654 10649 10644 10639 10634 10628 10623 10617 10611 10603 10596 10589 10583 10576 10569 10559 10550 10543 10528
10700 10699 10698 10698 10697 10696 10695 10694 10692 10690 10689 10688 10686 10683 10680 10678 10676 10674 10672 10671 10668 10666 10663 10658 10655 10651 10649 10646 10642 10638 10634 10629 10624 10620 10614 10609 10603 10597 10589 10582 10574 10568 10562 10556 10549 10538 10529
10690 10688 10688 10686 10685 10684 10683 10681 10679 10678 10676 10675 10672 10670 10668 10666 10663 10660 10659 10656 10654 10653 10650 10646 10642 10639 10636 10634 10631 10627 10623 10620 10615 10610 10605 10601 10595 10589 10585 10577 10570 10562 10555 10550 10544 10538 10531
10677 10675 10673 10672 10670 10670 10669 10667 10666 10665 10663 10661 10659 10656 10654 10651 10649 10647 10644 10642 10639 10638 10637 10632 10629 10627 10624 10621 10619 10615 10612 10609 10605 10601 10596 10592 10586 10580 10576 10571 10564 10556 10550 10544 10540 10534 10528
10664 10663 10662 10660 10658 10656 10654 10653 10652 10651 10649 10647 10644 10640 10639 10637 10635 10633 10631 10628 10625 10623 10621 10618 10616 10614 10612 10609 10606 10604 10601 10598 10594 10590 10586 10582 10577 10572 10567 10562 10557 10551 10542 10536 10533 10530 10524
10655 10652 10650 10649 10647 10645 10642 10640 10638 10636 10634 10632 10630 10626 10624 10623 10621 10618 10617 10615 10614 10608 10602 10605 10602 10600 10598 10595 10593 10591 10588 10586 10583 10580 10574 10568 10565 10562 10558 10553 10549 10543 10538 10532 10524 10522 10522
10645 10643 10641 10639 10636 10633 10630 10628 10625 10623 10620 10616 10615 10613 10610 10607 10605 10602 10601 10600 10599 10593 10585 10586 10587 10585 10583 10579 10578 10577 10575 10572 10570 10567 10565 10561 10554 10552 10549 10545 10541 10536 10530 10526 10524 10520 10516
10636 10633 10630 10628 10625 10622 10619 10616 10612 10608 10605 10602 10599 10598 10594 10592 10589 10587 10585 10585 10581 10575 10571 10570 10570 10570 10568 10563 10563 10562 10561 10558 10556 10554 10553 10550 10544 10542 10539 10535 10531 10528 10523 10519 10516 10511 10507
10626 10622 10619 10616 10613 10610 10607 10603 10600 10595 10592 10589 10585 10583 10581 10575 10573 10572 10573 10570 10564 10559 10557 10556 10556 10554 10553 10548 10546 10547 10549 10544 10544 10541 10540 10539 10537 10531 10529 10527 10522 10520 10517 10513 10510 10510 10502
10613 10610 10607 10603 10599 10595 10592 10589 10585 10581 10578 10575 10571 10567 10565 10561 10559 10558 10556 10552 10547 10544 10541 10542 10540 10538 10536 10534 10533 10533 10535 10531 10530 10529 10528 10527 10526 10521 10519 10518 10516 10513 10510 10508 10503 10503 10502
10599 10594 10592 10588 10584 10580 10576 10574 10569 10566 10561 10558 10554 10550 10549 10544 10541 10539 10538 10535 10532 10527 10522 10521 10522 10520 10519 10518 10519 10518 10519 10516 10517 10517 10518 10516 10517 10514 10508 10507 10507 10504 10503 10501 10499 10495 10494
10584 10578 10574 10571 10567 10563 10559 10555 10552 10549 10542 10538 10536 10532 10528 10525 10522 10518 10518 10515 10511 10510 10506 10504 10503 10503 10503 10504 10502 10506 10506 10503 10502 10503 10506 10506 10508 10505 10501 10497 10497 10495 10493 10493 10492 10489 10485
10565 10560 10556 10553 10549 10544 10539 10535 10532 10527 10524 10519 10514 10512 10508 10504 10500 10497 10495 10495 10490 10486 10485 10484 10484 10482 10485 10487 10485 10490 10490 10490 10489 10488 10488 10491 10496 10493 10493 10490 10488 10486 10483 10483 10483 10483 10482
10546 10543 10538 10534 10529 10523 10518 10514 10509 10506 10502 10498 10494 10491 10486 10483 10477 10473 10471 10471 10466 10463 10462 10462 10462 10462 10463 10466 10465 10466 10469 10473 10475 10473 10473 10476 10482 10479 10479 10477 10478 10479 10475 10470 10472 10473 10474
10525 10521 10517 10511 10506 10500 10493 10489 10487 10483 10479 10475 10471 10467 10464 10459 10454 10449 10445 10446 10442 10442 10439 10437 10442 10441 10442 10440 10442 10446 10447 10451 10454 10455 10455 10459 10465 10464 10467 10461 10463 10470 10465 10453 10459 10461 10461
10503 10498 10491 10485 10479 10474 10468 10464 10461 10457 10453 10449 10445 10441 10439 10435 10429 10425 10421 10420 10421 10419 10415 10417 10415 10418 10416 10415 10419 10425 10427 10430 10433 10435 10435 10441 10442 10443 10452 10446 10450 10461 10446 10444 10445 10445 10447
10478 10471 10464 10456 10450 10446 10443 10438 10432 10428 10424 10421 10417 10413 10412 10412 10405 10399 10398 10398 10394 10393 10395 10391 10390 10392 10391 10393 10399 10401 10405 10410 10413 10415 10415 10420 10421 10421 10430 10429 10440 10441 10438 10430 10431 10430 10430
10449 10443 10435 10429 10423 10417 10412 10410 10406 10400 10395 10391 10389 10387 10386 10386 10381 10375 10376 10374 10371 10371 10369 10370 10364 10367 10370 10373 10373 10377 10383 10388 10393 10395 10397 10397 10399 10399 10404 10409 10423 10428 10420 10419 10419 10422 10408
10419 10413 10407 10400 10393 10388 10383 10378 10374 10372 10368 10365 10360 10359 10358 10361 10356 10354 10352 10348 10350 10346 10345 10344 10345 10343 10345 10346 10348 10357 10364 10366 10372 10376 10377 10373 10374 10376 10384 10388 10402 10406 10402 10398 10394 10414 10381
10390 10383 10376 10369 10364 10360 10354 10349 10346 10342 10339 10339 10335 10333 10332 10334 10332 10333 10331 10327 10323 10322 10324 10320 10321 10318 10317 10321 10326 10332 10339 10343 10353 10357 10354 10354 10353 10356 10357 10365 10386 10385 10380 10369 10382 10382 10378
10360 10352 10346 10340 10336 10332 10329 10323 10320 10316 10312 10311 10310 10308 10308 10309 10309 10308 10304 10300 10299 10296 10299 10296 10299 10294 10291 10291 10296 10306 10319 10319 10328 10333 10337 10334 10332 10338 10334 10340 10362 10357 10352 10350 10354 10356 10359
10332 10325 10320 10314 10310 10305 10303 10299 10295 10292 10287 10285 10288 10282 10282 10285 10288 10283 10280 10273 10271 10269 10269 10274 10275 10267 10264 10267 10273 10283 10291 10298 10304 10313 10309 10308 10309 10311 10317 10332 10333 10333 10330 10324 10329 10337 10339